QPF
0.01 0.01 0.01 0.01 0.03 0.07 0.10 0.11 0.07 0.03 0.03 0.05 0.04 0.03 0.03 0.04 0.05 0.07 0.08 0.07 0.06 0.06 0.07 0.09 0.10 0.09 0.08 0.08 0.07 0.06 0.04 0.02 0.01 0.01 0.01 0.01 0.01 0.01 0.01 0.01 0.01 0.01 0.01
0.01 0.01 0.01 0.02 0.03 0.05 0.09 0.10 0.09 0.05 0.03 0.03 0.04 0.03 0.03 0.04 0.05 0.05 0.07 0.07 0.06 0.06 0.06 0.07 0.10 0.11 0.09 0.06 0.07 0.07 0.06 0.04 0.02 0.01 0.01 0.02 0.02 0.02 0.01 0.01 0.01 0.01 0.01
0.01 0.01 0.01 0.01 0.02 0.03 0.06 0.07 0.07 0.06 0.03 0.02 0.03 0.03 0.02 0.03 0.03 0.04 0.04 0.05 0.05 0.06 0.06 0.07 0.07 0.09 0.10 0.08 0.07 0.06 0.05 0.04 0.02 0.01 0.01 0.01 0.02 0.02 0.02 0.01 0.01 0.01 0.02
0.01 0.01 0.01 0.01 0.01 0.02 0.03 0.05 0.05 0.04 0.03 0.02 0.02 0.03 0.02 0.02 0.02 0.03 0.03 0.04 0.03 0.04 0.05 0.05 0.06 0.07 0.10 0.10 0.08 0.07 0.06 0.05 0.04 0.02 0.01 0.00 0.00 0.01 0.02 0.02 0.02 0.02 0.02
0.01 0.01 0.01 0.01 0.01 0.01 0.02 0.03 0.04 0.03 0.03 0.03 0.02 0.03 0.03 0.02 0.02 0.03 0.03 0.04 0.03 0.02 0.03 0.05 0.06 0.06 0.08 0.09 0.09 0.07 0.06 0.06 0.05 0.04 0.02 0.01 0.01 0.00 0.00 0.01 0.02 0.03 0.02
0.01 0.01 0.01 0.01 0.01 0.01 0.02 0.02 0.04 0.04 0.03 0.03 0.02 0.03 0.03 0.03 0.03 0.03 0.03 0.03 0.03 0.02 0.02 0.03 0.05 0.05 0.07 0.09 0.10 0.08 0.05 0.04 0.04 0.04 0.03 0.02 0.01 0.01 0.00 0.00 0.01 0.03 0.03
0.01 0.01 0.01 0.01 0.01 0.01 0.02 0.02 0.03 0.04 0.03 0.02 0.02 0.02 0.03 0.03 0.03 0.03 0.03 0.03 0.03 0.03 0.02 0.02 0.04 0.05 0.05 0.07 0.09 0.10 0.08 0.05 0.04 0.03 0.03 0.02 0.01 0.01 0.00 0.00 0.01 0.02 0.03
0.00 0.00 0.01 0.01 0.01 0.01 0.02 0.03 0.03 0.04 0.05 0.04 0.03 0.02 0.03 0.04 0.04 0.04 0.04 0.03 0.03 0.03 0.02 0.02 0.03 0.04 0.04 0.05 0.07 0.09 0.10 0.08 0.06 0.04 0.03 0.03 0.02 0.01 0.01 0.01 0.01 0.02 0.03
0.00 0.00 0.00 0.00 0.01 0.01 0.01 0.02 0.03 0.03 0.05 0.05 0.04 0.03 0.03 0.05 0.06 0.05 0.05 0.04 0.04 0.03 0.02 0.02 0.03 0.04 0.04 0.04 0.05 0.07 0.09 0.09 0.08 0.06 0.04 0.04 0.03 0.02 0.02 0.01 0.02 0.03 0.03
0.00 0.00 0.00 0.00 0.00 0.01 0.01 0.02 0.02 0.03 0.04 0.05 0.06 0.04 0.03 0.05 0.08 0.08 0.06 0.06 0.05 0.04 0.03 0.02 0.03 0.03 0.04 0.04 0.05 0.05 0.06 0.08 0.08 0.08 0.06 0.05 0.04 0.03 0.02 0.02 0.03 0.04 0.04
0.00 0.00 0.00 0.00 0.00 0.01 0.01 0.01 0.01 0.02 0.03 0.04 0.06 0.06 0.04 0.04 0.08 0.10 0.08 0.06 0.06 0.06 0.04 0.02 0.03 0.03 0.04 0.04 0.05 0.05 0.05 0.06 0.07 0.07 0.07 0.06 0.05 0.04 0.03 0.02 0.02 0.03 0.04
0.01 0.00 0.00 0.00 0.00 0.01 0.01 0.01 0.01 0.01 0.01 0.02 0.03 0.04 0.04 0.04 0.06 0.10 0.11 0.08 0.06 0.06 0.05 0.03 0.03 0.03 0.03 0.04 0.05 0.05 0.06 0.06 0.07 0.06 0.06 0.06 0.05 0.05 0.04 0.03 0.02 0.03 0.03
0.01 0.01 0.00 0.00 0.00 0.01 0.01 0.01 0.01 0.01 0.01 0.01 0.02 0.02 0.03 0.03 0.04 0.07 0.11 0.11 0.07 0.05 0.04 0.04 0.03 0.03 0.03 0.04 0.04 0.05 0.05 0.06 0.06 0.06 0.06 0.05 0.05 0.04 0.05 0.06 0.04 0.04 0.04
0.01 0.01 0.01 0.01 0.01 0.01 0.01 0.01 0.01 0.01 0.01 0.01 0.01 0.01 0.01 0.02 0.03 0.05 0.08 0.12 0.11 0.07 0.05 0.03 0.03 0.03 0.03 0.04 0.04 0.04 0.05 0.05 0.06 0.06 0.06 0.06 0.06 0.04 0.04 0.06 0.06 0.06 0.05
0.02 0.01 0.01 0.01 0.01 0.01 0.01 0.01 0.01 0.01 0.01 0.01 0.01 0.01 0.01 0.01 0.02 0.03 0.06 0.09 0.12 0.10 0.06 0.04 0.03 0.03 0.04 0.04 0.04 0.04 0.04 0.04 0.04 0.06 0.06 0.06 0.06 0.06 0.05 0.06 0.06 0.07 0.07
0.01 0.01 0.01 0.01 0.01 0.01 0.01 0.01 0.01 0.01 0.01 0.01 0.01 0.01 0.01 0.01 0.01 0.02 0.04 0.06 0.10 0.12 0.10 0.06 0.04 0.04 0.04 0.05 0.05 0.04 0.04 0.04 0.04 0.04 0.05 0.06 0.06 0.06 0.06 0.07 0.08 0.08 0.07
0.01 0.01 0.02 0.01 0.01 0.02 0.02 0.01 0.01 0.01 0.01 0.01 0.01 0.01 0.01 0.01 0.01 0.02 0.03 0.04 0.06 0.09 0.11 0.09 0.06 0.04 0.04 0.05 0.04 0.05 0.05 0.05 0.05 0.05 0.05 0.05 0.05 0.05 0.05 0.05 0.07 0.08 0.08
0.01 0.01 0.01 0.02 0.01 0.01 0.03 0.03 0.02 0.01 0.01 0.01 0.01 0.01 0.01 0.01 0.01 0.01 0.02 0.03 0.05 0.06 0.09 0.10 0.09 0.06 0.05 0.04 0.04 0.04 0.04 0.04 0.05 0.05 0.05 0.05 0.05 0.05 0.04 0.04 0.05 0.06 0.06
0.01 0.01 0.01 0.01 0.01 0.01 0.02 0.03 0.04 0.03 0.02 0.01 0.01 0.01 0.01 0.01 0.01 0.01 0.01 0.02 0.03 0.05 0.07 0.09 0.09 0.08 0.07 0.06 0.05 0.04 0.04 0.04 0.05 0.05 0.06 0.05 0.04 0.05 0.06 0.06 0.06 0.06 0.05
0.00 0.00 0.00 0.01 0.01 0.01 0.01 0.01 0.02 0.04 0.04 0.03 0.02 0.01 0.01 0.01 0.01 0.01 0.01 0.02 0.02 0.03 0.05 0.06 0.08 0.08 0.08 0.07 0.07 0.06 0.05 0.05 0.04 0.05 0.06 0.07 0.06 0.06 0.05 0.05 0.06 0.06 0.05
0.00 0.00 0.00 0.01 0.01 0.01 0.01 0.01 0.01 0.02 0.03 0.05 0.04 0.02 0.02 0.02 0.02 0.01 0.02 0.02 0.02 0.03 0.04 0.05 0.06 0.08 0.09 0.08 0.06 0.07 0.07 0.06 0.05 0.05 0.05 0.07 0.07 0.07 0.06 0.07 0.07 0.05 0.04
0.00 0.00 0.00 0.00 0.01 0.01 0.01 0.01 0.01 0.01 0.01 0.02 0.04 0.04 0.02 0.02 0.02 0.02 0.02 0.02 0.02 0.03 0.03 0.03 0.04 0.06 0.07 0.09 0.09 0.08 0.07 0.08 0.07 0.06 0.05 0.05 0.05 0.06 0.06 0.06 0.06 0.06 0.06
0.00 0.00 0.01 0.01 0.01 0.01 0.01 0.01 0.01 0.01 0.01 0.01 0.02 0.03 0.03 0.03 0.03 0.03 0.03 0.03 0.02 0.02 0.03 0.03 0.03 0.03 0.05 0.06 0.07 0.08 0.09 0.09 0.09 0.08 0.07 0.06 0.06 0.06 0.06 0.06 0.06 0.06 0.06
0.00 0.01 0.01 0.01 0.01 0.01 0.00 0.01 0.01 0.01 0.01 0.01 0.01 0.01 0.02 0.02 0.02 0.02 0.03 0.03 0.03 0.03 0.03 0.03 0.03 0.03 0.03 0.03 0.04 0.06 0.07 0.09 0.10 0.09 0.09 0.08 0.07 0.06 0.06 0.06 0.06 0.06 0.06
0.01 0.01 0.01 0.01 0.01 0.01 0.00 0.01 0.01 0.01 0.01 0.01 0.01 0.01 0.01 0.02 0.02 0.02 0.02 0.02 0.02 0.03 0.04 0.04 0.04 0.04 0.03 0.03 0.04 0.05 0.05 0.06 0.07 0.09 0.10 0.09 0.09 0.09 0.08 0.07 0.06 0.06 0.06
0.01 0.01 0.01 0.01 0.00 0.00 0.00 0.00 0.01 0.01 0.01 0.01 0.01 0.01 0.01 0.01 0.01 0.01 0.01 0.01 0.02 0.02 0.03 0.03 0.03 0.04 0.03 0.03 0.03 0.04 0.04 0.05 0.05 0.07 0.08 0.08 0.08 0.08 0.09 0.09 0.08 0.07 0.06
MSLP
1038.72 1039.04 1039.37 1039.66 1039.85 1039.89 1039.75 1039.44 1039.00 1038.48 1037.97 1037.53 1037.19 1036.97 1036.84 1036.75 1036.64 1036.43 1036.11 1035.64 1035.06 1034.41 1033.75 1033.14 1032.62 1032.20 1031.87 1031.60 1031.33 1031.01 1030.61 1030.13 1029.58 1029.00 1028.46 1027.99 1027.63 1027.41 1027.31 1027.31 1027.36 1027.42 1027.46
1038.82 1039.18 1039.53 1039.83 1040.03 1040.10 1040.00 1039.75 1039.38 1038.96 1038.56 1038.21 1037.97 1037.82 1037.73 1037.66 1037.53 1037.29 1036.92 1036.41 1035.79 1035.12 1034.46 1033.85 1033.35 1032.95 1032.64 1032.37 1032.09 1031.76 1031.34 1030.83 1030.26 1029.67 1029.11 1028.62 1028.26 1028.02 1027.91 1027.89 1027.92 1027.97 1027.99
1038.80 1039.21 1039.59 1039.92 1040.15 1040.24 1040.19 1040.01 1039.73 1039.41 1039.10 1038.86 1038.68 1038.58 1038.51 1038.43 1038.27 1038.00 1037.58 1037.04 1036.40 1035.73 1035.06 1034.48 1033.99 1033.61 1033.31 1033.05 1032.77 1032.44 1032.02 1031.51 1030.94 1030.36 1029.81 1029.34 1028.99 1028.76 1028.64 1028.60 1028.61 1028.62 1028.60
1038.66 1039.13 1039.57 1039.95 1040.22 1040.37 1040.39 1040.28 1040.08 1039.85 1039.62 1039.43 1039.30 1039.21 1039.13 1039.01 1038.81 1038.50 1038.05 1037.48 1036.83 1036.16 1035.52 1034.96 1034.50 1034.13 1033.85 1033.59 1033.32 1033.00 1032.60 1032.12 1031.59 1031.06 1030.55 1030.13 1029.81 1029.60 1029.49 1029.44 1029.42 1029.38 1029.31
1038.40 1038.98 1039.50 1039.94 1040.29 1040.51 1040.60 1040.56 1040.44 1040.26 1040.07 1039.91 1039.78 1039.66 1039.55 1039.38 1039.13 1038.77 1038.29 1037.72 1037.07 1036.42 1035.80 1035.27 1034.83 1034.48 1034.21 1033.96 1033.71 1033.41 1033.05 1032.63 1032.17 1031.71 1031.28 1030.93 1030.67 1030.49 1030.39 1030.34 1030.29 1030.21 1030.08
1038.06 1038.75 1039.38 1039.92 1040.35 1040.65 1040.81 1040.85 1040.77 1040.63 1040.46 1040.28 1040.11 1039.94 1039.77 1039.54 1039.24 1038.84 1038.34 1037.77 1037.15 1036.52 1035.93 1035.42 1035.00 1034.66 1034.40 1034.16 1033.93 1033.66 1033.35 1033.00 1032.63 1032.26 1031.93 1031.66 1031.46 1031.33 1031.26 1031.20 1031.12 1031.01 1030.83
1037.65 1038.47 1039.22 1039.87 1040.40 1040.78 1041.01 1041.10 1041.06 1040.92 1040.73 1040.51 1040.29 1040.05 1039.80 1039.51 1039.17 1038.75 1038.25 1037.69 1037.10 1036.51 1035.95 1035.46 1035.04 1034.71 1034.44 1034.20 1033.98 1033.75 1033.49 1033.21 1032.93 1032.66 1032.42 1032.23 1032.10 1032.01 1031.95 1031.90 1031.81 1031.67 1031.46
1037.22 1038.15 1039.01 1039.77 1040.39 1040.86 1041.15 1041.28 1041.26 1041.11 1040.89 1040.61 1040.32 1040.01 1039.69 1039.35 1038.98 1038.55 1038.07 1037.55 1036.99 1036.44 1035.90 1035.42 1035.00 1034.65 1034.36 1034.11 1033.89 1033.68 1033.47 1033.25 1033.04 1032.85 1032.69 1032.57 1032.49 1032.43 1032.39 1032.34 1032.24 1032.10 1031.88
1036.77 1037.80 1038.75 1039.60 1040.31 1040.85 1041.20 1041.36 1041.34 1041.18 1040.91 1040.58 1040.22 1039.84 1039.48 1039.10 1038.72 1038.31 1037.86 1037.38 1036.87 1036.35 1035.84 1035.36 1034.92 1034.54 1034.21 1033.93 1033.70 1033.49 1033.30 1033.12 1032.97 1032.83 1032.72 1032.64 1032.58 1032.54 1032.50 1032.45 1032.36 1032.22 1032.02
1036.30 1037.39 1038.42 1039.34 1040.12 1040.73 1041.12 1041.31 1041.29 1041.11 1040.80 1040.42 1040.01 1039.59 1039.19 1038.81 1038.44 1038.06 1037.66 1037.24 1036.77 1036.29 1035.78 1035.29 1034.82 1034.39 1034.02 1033.70 1033.43 1033.20 1033.02 1032.86 1032.73 1032.62 1032.53 1032.46 1032.40 1032.35 1032.30 1032.24 1032.16 1032.04 1031.88
1035.77 1036.91 1037.99 1038.98 1039.82 1040.47 1040.90 1041.11 1041.10 1040.91 1040.58 1040.17 1039.72 1039.29 1038.88 1038.51 1038.17 1037.84 1037.49 1037.12 1036.70 1036.23 1035.74 1035.22 1034.72 1034.24 1033.81 1033.43 1033.12 1032.87 1032.68 1032.52 1032.39 1032.27 1032.17 1032.08 1032.00 1031.92 1031.84 1031.77 1031.69 1031.60 1031.48
1035.18 1036.34 1037.47 1038.50 1039.39 1040.08 1040.56 1040.79 1040.79 1040.59 1040.26 1039.83 1039.38 1038.94 1038.55 1038.20 1037.90 1037.62 1037.34 1037.01 1036.63 1036.19 1035.69 1035.15 1034.61 1034.08 1033.60 1033.18 1032.83 1032.55 1032.33 1032.15 1032.01 1031.88 1031.75 1031.62 1031.49 1031.37 1031.25 1031.15 1031.06 1030.99 1030.92
1034.49 1035.68 1036.84 1037.92 1038.85 1039.58 1040.09 1040.35 1040.36 1040.18 1039.85 1039.43 1038.99 1038.56 1038.19 1037.89 1037.63 1037.40 1037.17 1036.89 1036.54 1036.12 1035.62 1035.06 1034.49 1033.92 1033.40 1032.94 1032.56 1032.25 1032.02 1031.83 1031.66 1031.51 1031.34 1031.17 1030.98 1030.80 1030.64 1030.50 1030.40 1030.33 1030.30
1033.74 1034.95 1036.14 1037.24 1038.21 1038.98 1039.51 1039.80 1039.84 1039.67 1039.36 1038.96 1038.54 1038.14 1037.80 1037.54 1037.33 1037.15 1036.96 1036.72 1036.41 1036.00 1035.51 1034.95 1034.35 1033.76 1033.22 1032.74 1032.34 1032.02 1031.78 1031.58 1031.40 1031.21 1031.01 1030.79 1030.56 1030.32 1030.10 1029.92 1029.79 1029.72 1029.70
1032.94 1034.18 1035.38 1036.51 1037.50 1038.28 1038.84 1039.15 1039.21 1039.07 1038.78 1038.41 1038.02 1037.66 1037.37 1037.14 1036.98 1036.85 1036.70 1036.50 1036.21 1035.83 1035.35 1034.79 1034.20 1033.61 1033.06 1032.57 1032.17 1031.85 1031.61 1031.40 1031.21 1031.01 1030.78 1030.53 1030.25 1029.96 1029.70 1029.48 1029.31 1029.22 1029.19
1032.18 1033.42 1034.62 1035.75 1036.73 1037.52 1038.08 1038.40 1038.49 1038.37 1038.12 1037.79 1037.44 1037.12 1036.87 1036.70 1036.58 1036.48 1036.38 1036.21 1035.96 1035.60 1035.15 1034.61 1034.03 1033.46 1032.91 1032.44 1032.05 1031.74 1031.49 1031.29 1031.10 1030.88 1030.64 1030.36 1030.05 1029.73 1029.43 1029.17 1028.98 1028.86 1028.82
1031.51 1032.72 1033.89 1034.98 1035.94 1036.70 1037.26 1037.58 1037.67 1037.59 1037.37 1037.09 1036.79 1036.53 1036.33 1036.20 1036.13 1036.07 1036.01 1035.88 1035.66 1035.34 1034.92 1034.41 1033.86 1033.30 1032.78 1032.32 1031.94 1031.63 1031.39 1031.19 1030.99 1030.78 1030.53 1030.23 1029.91 1029.58 1029.26 1028.99 1028.78 1028.64 1028.58
1031.00 1032.13 1033.23 1034.25 1035.14 1035.86 1036.37 1036.68 1036.79 1036.73 1036.56 1036.33 1036.09 1035.89 1035.75 1035.67 1035.64 1035.63 1035.60 1035.51 1035.33 1035.05 1034.66 1034.19 1033.67 1033.14 1032.63 1032.19 1031.81 1031.51 1031.26 1031.05 1030.85 1030.63 1030.38 1030.09 1029.77 1029.44 1029.13 1028.86 1028.65 1028.51 1028.44
1030.65 1031.66 1032.64 1033.55 1034.34 1034.99 1035.46 1035.75 1035.86 1035.84 1035.72 1035.55 1035.38 1035.24 1035.15 1035.13 1035.15 1035.18 1035.18 1035.12 1034.98 1034.73 1034.37 1033.93 1033.44 1032.94 1032.45 1032.01 1031.63 1031.31 1031.05 1030.83 1030.62 1030.39 1030.14 1029.87 1029.57 1029.27 1028.99 1028.74 1028.55 1028.43 1028.36
1030.43 1031.29 1032.11 1032.88 1033.56 1034.12 1034.53 1034.80 1034.93 1034.94 1034.88 1034.77 1034.67 1034.60 1034.57 1034.59 1034.65 1034.71 1034.74 1034.70 1034.58 1034.36 1034.03 1033.62 1033.15 1032.66 1032.18 1031.74 1031.35 1031.02 1030.74 1030.49 1030.26 1030.04 1029.80 1029.54 1029.28 1029.02 1028.79 1028.59 1028.44 1028.35 1028.31
1030.28 1030.95 1031.61 1032.23 1032.78 1033.25 1033.62 1033.87 1034.01 1034.06 1034.06 1034.02 1033.99 1033.98 1034.01 1034.07 1034.15 1034.22 1034.26 1034.24 1034.13 1033.92 1033.61 1033.22 1032.76 1032.29 1031.81 1031.36 1030.96 1030.60 1030.30 1030.04 1029.80 1029.57 1029.35 1029.12 1028.90 1028.70 1028.53 1028.39 1028.30 1028.25 1028.25
1030.11 1030.60 1031.09 1031.56 1032.00 1032.39 1032.71 1032.96 1033.12 1033.23 1033.28 1033.31 1033.34 1033.38 1033.44 1033.52 1033.61 1033.68 1033.71 1033.68 1033.57 1033.36 1033.06 1032.67 1032.23 1031.77 1031.30 1030.85 1030.43 1030.07 1029.76 1029.48 1029.24 1029.02 1028.82 1028.64 1028.47 1028.32 1028.21 1028.14 1028.11 1028.12 1028.16
1029.84 1030.16 1030.50 1030.85 1031.20 1031.52 1031.82 1032.07 1032.26 1032.41 1032.52 1032.61 1032.68 1032.76 1032.84 1032.92 1033.00 1033.05 1033.06 1033.00 1032.87 1032.65 1032.35 1031.97 1031.54 1031.09 1030.63 1030.20 1029.79 1029.43 1029.12 1028.86 1028.63 1028.44 1028.27 1028.12 1028.01 1027.92 1027.87 1027.86 1027.89 1027.95 1028.03
1029.40 1029.58 1029.81 1030.06 1030.34 1030.63 1030.91 1031.17 1031.40 1031.59 1031.75 1031.88 1031.98 1032.08 1032.16 1032.23 1032.28 1032.29 1032.26 1032.17 1032.01 1031.78 1031.47 1031.10 1030.70 1030.27 1029.84 1029.43 1029.05 1028.72 1028.44 1028.20 1028.01 1027.85 1027.72 1027.62 1027.56 1027.52 1027.52 1027.56 1027.63 1027.73 1027.84
1028.79 1028.87 1029.01 1029.20 1029.43 1029.70 1029.97 1030.25 1030.50 1030.72 1030.91 1031.06 1031.19 1031.28 1031.36 1031.40 1031.42 1031.39 1031.32 1031.19 1031.01 1030.76 1030.45 1030.10 1029.72 1029.33 1028.94 1028.58 1028.25 1027.97 1027.73 1027.54 1027.40 1027.28 1027.21 1027.16 1027.13 1027.14 1027.18 1027.24 1027.34 1027.45 1027.59
1028.05 1028.05 1028.12 1028.26 1028.46 1028.70 1028.97 1029.24 1029.50 1029.74 1029.95 1030.12 1030.25 1030.34 1030.40 1030.42 1030.40 1030.35 1030.24 1030.09 1029.89 1029.64 1029.34 1029.01 1028.66 1028.31 1027.98 1027.67 1027.41 1027.19 1027.02 1026.89 1026.80 1026.74 1026.71 1026.71 1026.72 1026.75 1026.81 1026.89 1026.99 1027.11 1027.25
Thickness
5507 5506 5507 5507 5508 5508 5509 5508 5510 5511 5512 5513 5514 5515 5516 5518 5520 5522 5524 5527 5528 5529 5531 5532 5533 5534 5535 5536 5536 5536 5536 5535 5536 5536 5534 5536 5538 5541 5544 5546 5548 5550 5551
5493 5493 5494 5493 5494 5495 5495 5495 5496 5497 5498 5499 5500 5502 5503 5505 5507 5510 5512 5514 5516 5518 5519 5521 5522 5522 5524 5525 5525 5525 5524 5523 5525 5525 5523 5523 5525 5528 5531 5533 5535 5537 5539
5479 5480 5481 5481 5481 5481 5481 5482 5482 5483 5484 5485 5487 5488 5490 5493 5494 5497 5500 5502 5505 5506 5508 5510 5511 5511 5513 5514 5515 5516 5517 5515 5513 5515 5515 5514 5515 5513 5516 5519 5522 5524 5526
5467 5467 5468 5468 5467 5467 5468 5469 5469 5470 5470 5471 5473 5475 5477 5479 5482 5484 5488 5490 5493 5495 5496 5498 5499 5500 5502 5504 5505 5506 5506 5506 5505 5504 5505 5506 5507 5504 5504 5505 5508 5510 5512
5455 5455 5455 5455 5454 5454 5455 5456 5457 5457 5457 5458 5460 5461 5462 5465 5468 5471 5475 5477 5480 5482 5484 5486 5488 5489 5491 5492 5494 5495 5496 5496 5496 5495 5494 5493 5493 5494 5494 5494 5494 5496 5498
5441 5440 5441 5441 5440 5439 5441 5443 5444 5444 5445 5446 5447 5448 5450 5452 5455 5458 5461 5465 5467 5470 5473 5474 5476 5477 5479 5480 5482 5484 5484 5485 5486 5485 5485 5485 5484 5484 5484 5483 5482 5482 5485
5427 5426 5426 5426 5426 5426 5427 5428 5431 5432 5433 5433 5434 5435 5437 5440 5442 5446 5449 5452 5454 5458 5461 5463 5464 5465 5467 5469 5470 5471 5473 5474 5474 5475 5475 5475 5476 5476 5475 5474 5471 5470 5471
5415 5414 5413 5412 5412 5413 5414 5415 5417 5418 5420 5421 5422 5422 5425 5427 5430 5433 5436 5439 5442 5446 5449 5451 5453 5455 5456 5457 5458 5459 5461 5463 5463 5464 5464 5464 5465 5465 5465 5464 5460 5458 5457
5404 5401 5400 5399 5399 5400 5401 5402 5404 5405 5406 5408 5410 5411 5412 5414 5416 5420 5423 5426 5430 5432 5436 5438 5441 5443 5444 5445 5446 5448 5449 5451 5452 5453 5453 5453 5454 5453 5453 5453 5453 5451 5449
5392 5389 5387 5387 5387 5387 5388 5390 5391 5392 5394 5395 5396 5398 5399 5401 5404 5406 5410 5413 5417 5419 5422 5426 5428 5429 5431 5433 5435 5436 5438 5440 5441 5442 5442 5442 5443 5442 5441 5441 5442 5442 5443
5381 5377 5375 5374 5374 5375 5375 5376 5378 5379 5381 5382 5383 5385 5386 5388 5391 5393 5397 5400 5403 5406 5409 5413 5415 5417 5418 5421 5423 5425 5427 5429 5430 5431 5431 5432 5432 5431 5431 5431 5430 5431 5431
5368 5365 5363 5362 5361 5361 5362 5363 5364 5366 5367 5368 5370 5372 5374 5375 5378 5381 5384 5387 5391 5393 5396 5399 5402 5404 5406 5408 5410 5413 5415 5417 5419 5420 5421 5421 5421 5421 5420 5420 5420 5421 5421
5357 5353 5350 5348 5348 5348 5349 5350 5351 5353 5354 5355 5357 5358 5360 5362 5365 5368 5371 5374 5378 5380 5382 5385 5388 5391 5393 5395 5398 5400 5402 5405 5408 5409 5410 5410 5410 5410 5410 5410 5410 5410 5410
5345 5341 5338 5336 5335 5335 5336 5337 5338 5339 5340 5342 5343 5345 5347 5349 5351 5354 5357 5361 5364 5366 5369 5372 5375 5377 5379 5381 5384 5387 5389 5392 5394 5397 5398 5399 5400 5401 5400 5400 5400 5399 5398
5334 5331 5327 5324 5322 5322 5322 5324 5325 5326 5327 5328 5330 5332 5334 5336 5338 5341 5344 5347 5349 5352 5355 5358 5361 5363 5365 5368 5370 5373 5376 5378 5381 5384 5386 5388 5390 5391 5391 5391 5390 5389 5388
5324 5320 5317 5314 5311 5310 5310 5310 5311 5312 5314 5315 5317 5319 5320 5322 5325 5327 5330 5333 5335 5338 5341 5344 5347 5349 5352 5355 5357 5360 5362 5365 5367 5371 5374 5376 5378 5379 5381 5382 5382 5381 5379
5314 5310 5306 5303 5301 5299 5299 5298 5299 5300 5301 5302 5304 5305 5307 5308 5311 5313 5316 5319 5321 5324 5327 5330 5333 5336 5339 5342 5344 5347 5349 5351 5353 5357 5361 5364 5366 5368 5369 5370 5371 5371 5371
5304 5299 5295 5293 5290 5288 5287 5286 5286 5287 5288 5289 5291 5292 5293 5295 5297 5300 5302 5305 5307 5310 5313 5316 5319 5322 5326 5329 5332 5334 5335 5337 5340 5343 5347 5351 5354 5356 5357 5358 5358 5358 5359
5292 5288 5284 5281 5278 5276 5275 5274 5275 5275 5276 5277 5278 5279 5280 5282 5284 5287 5289 5291 5294 5297 5300 5303 5306 5309 5313 5316 5319 5320 5321 5324 5327 5330 5333 5337 5341 5344 5345 5345 5346 5346 5346
5281 5276 5272 5269 5266 5264 5263 5262 5262 5263 5263 5264 5265 5267 5268 5269 5272 5274 5276 5278 5281 5284 5287 5290 5293 5296 5299 5303 5306 5308 5309 5312 5315 5317 5320 5324 5328 5330 5331 5332 5333 5334 5334
5269 5265 5261 5258 5255 5253 5251 5250 5250 5250 5251 5252 5253 5254 5256 5257 5259 5261 5263 5265 5268 5271 5274 5277 5280 5283 5286 5290 5293 5295 5296 5299 5301 5304 5307 5311 5314 5317 5318 5319 5321 5323 5322
5257 5253 5250 5247 5244 5241 5239 5239 5238 5238 5238 5240 5241 5242 5243 5245 5248 5249 5251 5253 5255 5257 5260 5263 5267 5270 5273 5276 5279 5282 5285 5287 5289 5292 5295 5298 5300 5303 5305 5306 5308 5309 5309
5244 5241 5237 5234 5232 5229 5227 5226 5226 5226 5226 5227 5228 5229 5231 5232 5234 5235 5237 5239 5241 5244 5247 5250 5253 5256 5260 5262 5266 5269 5272 5275 5277 5280 5283 5286 5288 5290 5291 5293 5294 5295 5294
5231 5228 5225 5222 5220 5217 5216 5214 5214 5214 5214 5215 5216 5217 5218 5220 5222 5223 5225 5227 5229 5231 5233 5236 5240 5243 5246 5249 5252 5254 5257 5261 5264 5267 5270 5273 5275 5276 5278 5280 5280 5280 5281
5219 5216 5212 5210 5208 5206 5204 5203 5202 5202 5202 5203 5204 5205 5207 5208 5209 5211 5212 5214 5217 5218 5220 5224 5227 5230 5233 5237 5240 5243 5246 5248 5251 5254 5257 5259 5261 5262 5263 5265 5266 5267 5268
5206 5203 5200 5198 5196 5194 5193 5192 5191 5191 5190 5192 5193 5193 5195 5196 5197 5199 5201 5203 5205 5208 5211 5214 5216 5219 5222 5226 5229 5232 5236 5239 5241 5243 5245 5247 5248 5248 5250 5252 5253 5254 5256